Regional Weather Roundup
Issued by NWS

Home | Current Version | Previous Version | Text Only | Print | Product List | Glossary Off
Versions: 1 2 3 4 5 6 7 8 9 10 11 12 13 14 15 16 17 18 19 20 21 22 23 24 25 26 27 28 29 30 31 32 33 34 35 36 37 38 39 40 41 42 43 44 45 46 47 48 49 50

000
ASUS45 KCYS 271210
RWRWY

WYOMING REGIONAL WEATHER ROUNDUP
NATIONAL WEATHER SERVICE CHEYENNE WY
600 AM MDT MON APR 27 2015

NOTE:  "FAIR" INDICATES FEW OR NO CLOUDS BELOW 12,000 FEET
WITH NO SIGNIFICANT WEATHER AND/OR OBSTRUCTIONS TO VISIBILITY.

WYZ001-271300-
YELLOWSTONE NATIONAL PARK

CITY           SKY/WX    TMP DP  RH WIND       PRES   REMARKS
LK YELLOWSTONE   N/A     25  22  88 CALM      30.27R
6HR MIN TEMP:  25; 6HR MAX TEMP:  31;

W YELLOWSTONE  NOT AVBL

$$
WYZ002>013-054>058-071-098>099-271300-
NORTHERN WYOMING

CITY           SKY/WX    TMP DP  RH WIND       PRES   REMARKS
JACKSON        CLOUDY    34  30  86 N13       30.22S WCI  25
CODY           CLOUDY    34  30  86 CALM      30.27R
GREYBULL       CLOUDY    38  34  85 CALM      30.27R
6HR MIN TEMP:  37; 6HR MAX TEMP:  40; 6HR PCP:  0.01;

WORLAND        CLOUDY    38  33  82 CALM      30.27R
6HR MIN TEMP:  38; 6HR MAX TEMP:  39; 6HR PCP: TRACE;

SHERIDAN       CLOUDY    36  34  92 NW3       30.29R
6HR MIN TEMP:  35; 6HR MAX TEMP:  36; 6HR PCP:  0.01;

BUFFALO        SNOW      33  32  96 N5        30.27R VSB 1/4 WCI  29
6HR MIN TEMP:  33; 6HR MAX TEMP:  35; 6HR PCP:  0.01;

GILLETTE       LGT SNOW  33  32  96 NW7       30.26R FOG     WCI  27
6HR MIN TEMP:  33; 6HR MAX TEMP:  35; 6HR PCP:  0.01;

HULETT         LGT SNOW  34  32  93 CALM      30.26S
NEWCASTLE      CLOUDY    36  36 100 NW6       30.22R WCI  31

$$
WYZ014>020-022>026-101>103-271300-
CENTRAL WYOMING

CITY           SKY/WX    TMP DP  RH WIND       PRES   REMARKS
BIG PINEY      CLOUDY    37  30  75 N6        30.19R WCI  32
6HR MIN TEMP:  37; 6HR MAX TEMP:  40;

PINEDALE       CLOUDY    36  36 100 CALM      30.20R
DUBOIS         DRZL/FOG  32  32 100 SE6       30.20R VSB 1/2 WCI  26
LANDER         CLOUDY    34  33  96 NW5       30.23R WCI  30
6HR MIN TEMP:  34; 6HR MAX TEMP:  41; 6HR PCP:  0.10;

RIVERTON       CLOUDY    36  32  85 E5        30.25R WCI  32
6HR MIN TEMP:  36; 6HR MAX TEMP:  39; 6HR PCP: TRACE;

CASPER         LGT SNOW  33  31  92 NE5       30.24R FOG     WCI  29
6HR MIN TEMP:  33; 6HR MAX TEMP:  35; 6HR PCP:  0.13;

DOUGLAS        CLOUDY    37  36  96 NW12      30.22R WCI  29
6HR MIN TEMP:  37; 6HR MAX TEMP:  40; 6HR PCP:  0.08;


$$
WYZ021-027>030-104>119-271300-
SOUTHERN WYOMING

CITY           SKY/WX    TMP DP  RH WIND       PRES   REMARKS
EVANSTON       CLOUDY    34  31  88 N8        30.19R WCI  27
6HR MIN TEMP:  33; 6HR MAX TEMP:  35;

KEMMERER       CLOUDY    34  32  93 SW7       30.20R WCI  28
FORT BRIDGER   CLOUDY    34  34 100 W6        30.22S WCI  29
ROCK SPRINGS   FLURRIES  34  32  92 NE12      30.18S WCI  25
6HR MIN TEMP:  34; 6HR MAX TEMP:  37; 6HR PCP:  0.02;

DIXON          FOG       35  34  96 E3        30.15R VSB 1/2
RAWLINS        CLOUDY    36  30  79 N9        30.17R WCI  29
6HR MIN TEMP:  36; 6HR MAX TEMP:  37;

SARATOGA       PTSUNNY   32  32 100 MISG      30.15R
LARAMIE        CLOUDY    35  32  88 CALM      30.15R
6HR MIN TEMP:  33; 6HR MAX TEMP:  37;

CHEYENNE       CLOUDY    34  32  92 NE3       30.17R
6HR MIN TEMP:  33; 6HR MAX TEMP:  34; 6HR PCP:  0.27;

TORRINGTON     CLOUDY    43  41  93 N5        30.19R
6HR MIN TEMP:  42; 6HR MAX TEMP:  43; 6HR PCP:  0.02;

PINE BLUFFS    CLOUDY    36  36 100 N5        30.18R WCI  32

$$



USA.gov is the U.S. government's official web portal to all federal, state and local government web resources and services.